EW6304 Weather Reports


Display with metric or nautical units.
time (UTC)temp
F
wind
direction
speed
MPH
gust
MPH
rain 1hr
in
rain 24hr
in
rain mn
in
humidity
%
barometer
mb
20260509162415 62 0 2.0 4.0 0.00 0.04 0.04 73 1011.9
20260509161919 61 262 1.0 3.0 0.00 0.04 0.04 74 1012.0
20260509161915 62 0 1.0 4.0 0.00 0.04 0.04 73 1011.9
20260509160916 61 0 1.0 8.0 0.00 0.04 0.04 75 1012.1
20260509160415 60 0 1.0 8.0 0.00 0.04 0.04 76 1012.2
20260509155916 60 0 1.0 4.0 0.00 0.04 0.04 77 1012.5
20260509155419 59 122 1.0 5.0 0.00 0.04 0.04 76 1012.5
20260509155414 60 0 1.0 5.0 0.00 0.04 0.04 77 1012.4
20260509154414 59 98 2.0 3.0 0.00 0.04 0.04 78 1012.5
20260509153919 59 92 2.0 6.0 0.00 0.04 0.04 77 1012.7
20260509153914 59 105 2.0 4.0 0.00 0.04 0.04 77 1012.7
20260509153531 59 0 2.0 6.0 0.00 0.04 0.04 78 1012.7
20260509152413 58 0 2.0 9.0 0.00 0.04 0.04 80 1012.7
20260509151912 58 0 2.0 9.0 0.00 0.04 0.04 81 1012.8
20260509151413 57 101 1.0 3.0 0.00 0.04 0.04 83 1012.8
20260509150913 56 0 1.0 3.0 0.00 0.04 0.04 84 1012.8
20260509150412 56 0 2.0 5.0 0.00 0.04 0.04 84 1012.8
20260509145913 56 0 2.0 5.0 0.00 0.04 0.04 84 1012.7
20260509145413 55 0 2.0 5.0 0.00 0.04 0.04 85 1012.7
20260509144417 54 0 2.0 5.0 0.00 0.04 0.04 88 1012.9
20260509144413 55 0 2.0 5.0 0.00 0.04 0.04 87 1012.8
20260509143418 53 0 2.0 3.0 0.00 0.04 0.04 90 1013.1
20260509143412 54 0 2.0 4.0 0.00 0.04 0.04 89 1013.0
20260509143031 53 0 2.0 3.0 0.00 0.04 0.04 91 1013.1
20260509141913 53 0 2.0 6.0 0.00 0.04 0.04 92 1013.3
20260509141413 52 96 2.0 6.0 0.00 0.04 0.04 92 1013.4
20260509140914 52 0 2.0 3.0 0.00 0.04 0.04 93 1013.3
20260509140411 51 115 2.0 3.0 0.00 0.04 0.04 93 1013.3
20260509135910 51 119 1.0 2.0 0.00 0.04 0.04 93 1013.5
20260509135412 51 119 1.0 2.0 0.01 0.04 0.04 94 1013.7
20260509134911 51 119 0.0 2.0 0.01 0.04 0.04 94 1013.8
20260509134409 51 119 0.0 3.0 0.01 0.04 0.04 94 1013.8
20260509133908 50 119 0.0 3.0 0.01 0.04 0.04 94 1013.8
20260509133410 50 261 0.0 1.0 0.01 0.04 0.04 94 1013.8
20260509132913 49 257 0.0 2.0 0.01 0.04 0.04 94 1013.9
20260509132909 50 0 0.0 2.0 0.01 0.04 0.04 94 1013.8
20260509131908 49 0 0.0 2.0 0.01 0.04 0.04 94 1013.9
20260509131404 48 0 0.0 3.0 0.01 0.04 0.04 94 1013.9
20260509130904 48 0 0.0 3.0 0.01 0.04 0.04 94 1013.8
20260509130403 47 0 0.0 1.0 0.01 0.04 0.04 94 1013.8
20260509125909 46 260 0.0 1.0 0.01 0.04 0.04 93 1013.9
20260509125904 46 260 0.0 1.0 0.01 0.03 0.03 93 1014.0
20260509124903 46 260 0.0 1.0 0.01 0.03 0.03 93 1014.0
20260509124402 45 260 0.0 1.0 0.01 0.03 0.03 93 1014.0
20260509123908 45 260 0.0 2.0 0.02 0.03 0.03 92 1013.8
20260509123901 45 260 0.0 1.0 0.01 0.03 0.03 93 1013.9
20260509122910 45 259 0.0 2.0 0.02 0.03 0.03 92 1013.8
20260509122903 45 260 0.0 2.0 0.02 0.03 0.03 92 1013.7
20260509121901 45 259 0.0 2.0 0.03 0.03 0.03 92 1013.8
20260509121408 44 260 0.0 1.0 0.03 0.03 0.03 92 1013.9
20260509121403 44 260 0.0 1.0 0.03 0.03 0.03 92 1013.9
20260509120401 44 260 0.0 1.0 0.03 0.03 0.03 92 1014.0
20260509115902 44 260 0.0 1.0 0.03 0.03 0.03 92 1014.1
20260509115402 44 260 0.0 1.0 0.02 0.02 0.02 91 1014.2
20260509114903 44 260 0.0 1.0 0.02 0.02 0.02 91 1014.3
20260509114408 43 260 0.0 1.0 0.02 0.02 0.02 91 1014.6
20260509114403 44 260 0.0 1.0 0.02 0.02 0.02 91 1014.4
20260509113402 43 260 0.0 1.0 0.01 0.01 0.01 91 1014.7
20260509112901 43 260 0.0 1.0 0.01 0.01 0.01 90 1014.8
20260509112403 43 260 0.0 1.0 0.01 0.01 0.01 90 1014.8
20260509111901 43 260 0.0 1.0 0.00 0.00 0.00 90 1014.7
20260509111359 43 260 0.0 0.0 0.00 0.00 0.00 90 1014.7
20260509110901 42 260 0.0 1.0 0.00 0.00 0.00 90 1014.6
20260509110359 42 260 0.0 1.0 0.00 0.00 0.00 90 1014.7
20260509105900 42 260 0.0 1.0 0.00 0.00 0.00 90 1014.6
20260509105358 42 260 0.0 1.0 0.00 0.00 0.00 90 1014.5
20260509104857 42 260 0.0 1.0 0.00 0.00 0.00 90 1014.4
20260509104357 42 260 0.0 1.0 0.00 0.00 0.00 90 1014.5
20260509103857 42 260 0.0 1.0 0.00 0.00 0.00 90 1014.4
20260509103358 42 260 0.0 0.0 0.00 0.00 0.00 90 1014.1
20260509102855 42 260 0.0 0.0 0.00 0.00 0.00 91 1014.1
20260509102355 41 260 0.0 0.0 0.00 0.00 0.00 90 1013.7
20260509101856 41 260 0.0 1.0 0.00 0.00 0.00 91 1013.7
20260509101356 41 260 0.0 1.0 0.00 0.00 0.00 91 1013.5
20260509100901 40 260 0.0 1.0 0.00 0.00 0.00 91 1013.5
20260509100856 41 260 0.0 1.0 0.00 0.00 0.00 90 1013.6
20260509095851 40 260 0.0 0.0 0.00 0.00 0.00 90 1013.3
20260509095352 40 260 0.0 1.0 0.00 0.00 0.00 90 1013.1
20260509094856 40 260 0.0 1.0 0.00 0.00 0.00 91 1013.1
20260509094851 40 260 0.0 1.0 0.00 0.00 0.00 90 1013.3
20260509093851 39 260 0.0 0.0 0.00 0.00 0.00 90 1012.9
20260509093351 39 260 0.0 0.0 0.00 0.00 0.00 90 1013.0
20260509092850 39 260 0.0 0.0 0.00 0.00 0.00 90 1013.0
20260509092350 38 260 0.0 0.0 0.00 0.00 0.00 90 1013.1
20260509091854 38 260 0.0 0.0 0.00 0.00 0.00 89 1013.1
20260509091848 38 260 0.0 0.0 0.00 0.00 0.00 90 1013.1
20260509090848 38 260 0.0 0.0 0.00 0.00 0.00 89 1013.1
20260509090348 38 260 0.0 0.0 0.00 0.00 0.00 89 1013.2
20260509085849 38 260 0.0 0.0 0.00 0.00 0.00 89 1013.1
20260509085352 39 260 0.0 0.0 0.00 0.00 0.00 89 1012.9
20260509085348 39 260 0.0 0.0 0.00 0.00 0.00 89 1012.9
20260509084348 39 260 0.0 0.0 0.00 0.00 0.00 89 1012.8
20260509083848 39 260 0.0 0.0 0.00 0.00 0.00 88 1012.8
20260509083349 39 260 0.0 0.0 0.00 0.00 0.00 88 1012.9
20260509082852 39 260 0.0 0.0 0.00 0.00 0.00 88 1013.2
20260509082845 39 260 0.0 0.0 0.00 0.00 0.00 88 1013.1
20260509082346 39 260 0.0 0.0 0.00 0.00 0.00 88 1013.1
20260509081345 39 260 0.0 0.0 0.00 0.00 0.00 88 1013.3
20260509080846 39 260 0.0 0.0 0.00 0.00 0.00 88 1013.3
20260509080345 39 260 0.0 1.0 0.00 0.00 0.00 88 1013.2
20260509075845 39 260 0.0 1.0 0.00 0.00 0.00 87 1013.3
20260509075344 39 260 0.0 0.0 0.00 0.00 0.00 87 1013.3
20260509074844 39 260 0.0 0.0 0.00 0.00 0.00 87 1013.2
20260509074344 39 260 0.0 0.0 0.00 0.00 0.00 86 1013.2
20260509073840 39 260 0.0 0.0 0.00 0.00 0.00 86 1013.3
20260509073346 39 260 0.0 1.0 0.00 0.00 0.00 87 1013.2
20260509073342 39 260 0.0 0.0 0.00 0.00 0.00 87 1013.2
20260509072341 39 260 0.0 1.0 0.00 0.00 0.00 86 1013.3
20260509071841 39 260 0.0 1.0 0.00 0.00 0.00 86 1013.4
20260509071341 39 260 0.0 0.0 0.00 0.00 0.00 86 1013.3
20260509070841 39 260 0.0 1.0 0.00 0.00 0.00 86 1013.1
20260509070342 40 260 0.0 1.0 0.00 0.00 0.00 86 1013.3
20260509065841 40 260 0.0 0.0 0.00 0.00 0.00 86 1013.3
20260509065342 40 260 0.0 1.0 0.00 0.00 0.00 86 1013.2
20260509064845 40 260 0.0 1.0 0.00 0.00 0.00 85 1013.2
20260509064840 40 260 0.0 1.0 0.00 0.00 0.00 85 1013.2
20260509063844 40 260 0.0 1.0 0.00 0.00 0.00 85 1013.2
20260509063839 40 260 0.0 1.0 0.00 0.00 0.00 85 1013.2
20260509062846 40 260 0.0 1.0 0.00 0.00 0.00 85 1013.1
20260509062841 40 260 0.0 1.0 0.00 0.00 0.00 85 1013.2
20260509061839 40 260 0.0 1.0 0.00 0.00 0.00 85 1013.1
20260509061340 40 260 0.0 1.0 0.00 0.00 0.00 85 1013.1
20260509060839 40 260 0.0 1.0 0.00 0.00 0.00 84 1012.9
20260509060341 41 260 0.0 1.0 0.00 0.00 0.00 84 1012.9
20260509055838 41 260 0.0 0.0 0.00 0.00 0.00 83 1012.8
20260509055343 41 260 0.0 0.0 0.00 0.00 0.00 82 1012.9
20260509055338 41 260 0.0 0.0 0.00 0.00 0.00 83 1012.8
20260509054345 41 260 0.0 0.0 0.00 0.00 0.00 82 1012.9
20260509054341 41 260 0.0 0.0 0.00 0.00 0.00 83 1012.9
20260509053340 41 260 0.0 0.0 0.00 0.00 0.00 82 1012.9
20260509052838 42 260 0.0 0.0 0.00 0.00 0.00 82 1012.9
20260509052339 42 260 0.0 0.0 0.00 0.00 0.00 81 1012.9
20260509051841 42 260 0.0 1.0 0.00 0.00 0.00 81 1012.8
20260509051340 42 260 0.0 1.0 0.00 0.00 0.00 81 1012.9
20260509050839 42 0 0.0 1.0 0.00 0.00 0.00 80 1012.9
20260509050345 42 260 0.0 1.0 0.00 0.00 0.00 80 1013.0
20260509050341 42 259 0.0 1.0 0.00 0.00 0.00 80 1013.0
20260509045957 42 260 0.0 1.0 0.00 0.00 0.00 80 1012.9
20260509044840 43 260 0.0 1.0 0.00 0.00 0.00 79 1012.8
20260509044339 43 260 0.0 0.0 0.00 0.00 0.00 79 1012.8
20260509043836 43 260 0.0 0.0 0.00 0.00 0.00 78 1012.9
20260509043337 43 260 0.0 0.0 0.00 0.00 0.00 78 1012.8
20260509042834 43 260 0.0 0.0 0.00 0.00 0.00 77 1012.8
20260509042336 43 260 0.0 0.0 0.00 0.00 0.00 77 1012.8
20260509041835 44 260 0.0 0.0 0.00 0.00 0.00 76 1012.6
20260509041338 44 260 0.0 1.0 0.00 0.00 0.00 75 1012.5
20260509041332 44 260 0.0 1.0 0.00 0.00 0.00 76 1012.6
20260509040335 44 260 0.0 0.0 0.00 0.00 0.00 75 1012.6
20260509035836 44 260 0.0 0.0 0.00 0.00 0.00 74 1012.5
20260509035830 44 260 0.0 0.0 0.00 0.00 0.00 74 1012.4
20260509034831 44 260 0.0 0.0 0.00 0.00 0.00 74 1012.4
20260509034331 45 258 0.0 0.0 0.00 0.00 0.00 73 1012.4
20260509033830 45 0 0.0 0.0 0.00 0.00 0.00 73 1012.5
20260509033328 45 0 0.0 0.0 0.00 0.00 0.00 73 1012.4
20260509032834 45 260 0.0 1.0 0.00 0.00 0.00 72 1012.5
20260509032828 45 0 0.0 1.0 0.00 0.00 0.00 72 1012.5
20260509031829 46 260 0.0 1.0 0.00 0.00 0.00 72 1012.5
20260509031328 46 260 0.0 1.0 0.00 0.00 0.00 72 1012.4
20260509030830 46 260 0.0 1.0 0.00 0.00 0.00 71 1012.4
20260509030331 46 260 0.0 1.0 0.00 0.00 0.00 71 1012.3
20260509030326 46 260 0.0 1.0 0.00 0.00 0.00 71 1012.4
20260509025327 46 260 0.0 1.0 0.00 0.00 0.00 70 1012.3
20260509024827 47 260 0.0 1.0 0.00 0.00 0.00 70 1012.2
20260509024325 47 259 0.0 1.0 0.00 0.00 0.00 70 1012.2
20260509023825 47 259 0.0 1.0 0.00 0.00 0.00 69 1012.1
20260509023326 47 260 0.0 0.0 0.00 0.00 0.00 69 1012.0
20260509022829 47 260 0.0 0.0 0.00 0.00 0.00 68 1012.0
20260509022824 47 260 0.0 0.0 0.00 0.00 0.00 68 1012.0
20260509021825 48 260 0.0 0.0 0.00 0.00 0.00 68 1012.0
20260509021325 48 260 0.0 0.0 0.00 0.00 0.00 66 1011.9
20260509020824 48 260 0.0 0.0 0.00 0.00 0.00 66 1011.9
20260509020332 48 260 0.0 1.0 0.00 0.00 0.00 65 1011.7
20260509020327 48 260 0.0 0.0 0.00 0.00 0.00 65 1011.8
20260509015323 49 260 0.0 1.0 0.00 0.00 0.00 65 1011.7
20260509014823 49 260 0.0 0.0 0.00 0.00 0.00 64 1011.6
20260509014327 49 0 0.0 1.0 0.00 0.00 0.00 63 1011.5
20260509014322 49 260 0.0 1.0 0.00 0.00 0.00 63 1011.5
20260509013941 49 0 0.0 1.0 0.00 0.00 0.00 63 1011.4
20260509013439 49 259 0.0 1.0 0.00 0.00 0.00 62 1011.1
20260509012822 49 259 0.0 1.0 0.00 0.00 0.00 62 1011.2
20260509011823 50 259 0.0 1.0 0.00 0.00 0.00 63 1011.1
20260509011327 50 260 0.0 1.0 0.00 0.00 0.00 62 1010.9
20260509011322 50 260 0.0 1.0 0.00 0.00 0.00 62 1010.9
20260509010320 50 260 0.0 1.0 0.00 0.00 0.00 62 1010.8
20260509005826 51 260 0.0 1.0 0.00 0.00 0.00 60 1010.6
20260509005821 51 260 0.0 1.0 0.00 0.00 0.00 60 1010.7
20260509004820 51 259 0.0 1.0 0.00 0.00 0.00 59 1010.5
20260509004318 51 0 0.0 1.0 0.00 0.00 0.00 58 1010.4
20260509003818 52 257 0.0 1.0 0.00 0.00 0.00 57 1010.3
20260509003320 52 0 0.0 1.0 0.00 0.00 0.00 56 1010.1
20260509002823 53 0 0.0 1.0 0.00 0.00 0.00 55 1009.9
20260509002818 53 0 0.0 1.0 0.00 0.00 0.00 55 1009.9
20260509001817 54 0 0.0 1.0 0.00 0.00 0.00 54 1009.9
20260509001314 54 0 0.0 2.0 0.00 0.00 0.00 53 1009.7
20260509000815 55 260 0.0 2.0 0.00 0.00 0.00 52 1009.6
20260509000313 55 259 1.0 3.0 0.00 0.00 0.00 51 1009.5
20260508235814 55 259 1.0 3.0 0.00 0.00 0.00 50 1009.3
20260508235316 56 0 1.0 3.0 0.00 0.00 0.00 50 1009.2
20260508234814 56 273 1.0 8.0 0.00 0.00 0.00 49 1009.2
20260508234314 56 302 2.0 8.0 0.00 0.00 0.00 49 1009.1
20260508233815 56 286 2.0 5.0 0.00 0.00 0.00 48 1009.1
20260508233319 57 309 2.0 9.0 0.00 0.00 0.00 47 1008.9
20260508233313 56 309 2.0 9.0 0.00 0.00 0.00 47 1009.0
20260508232315 57 305 2.0 9.0 0.00 0.00 0.00 47 1008.9
20260508231814 57 305 3.0 9.0 0.00 0.00 0.00 46 1008.9
20260508231314 57 304 2.0 7.0 0.00 0.00 0.00 47 1008.8
20260508230815 58 288 3.0 9.0 0.00 0.00 0.00 46 1008.7
20260508230314 58 299 3.0 9.0 0.00 0.00 0.00 46 1008.7
20260508225815 58 306 3.0 9.0 0.00 0.00 0.00 46 1008.7
20260508225315 58 280 2.0 6.0 0.00 0.00 0.00 46 1008.6
20260508224813 58 283 2.0 9.0 0.00 0.00 0.00 47 1008.6
20260508224314 58 281 3.0 9.0 0.00 0.00 0.00 47 1008.5
20260508223815 58 332 3.0 9.0 0.00 0.00 0.00 46 1008.6
20260508223314 59 315 4.0 13.0 0.00 0.00 0.00 46 1008.5
20260508222813 59 298 4.0 13.0 0.00 0.00 0.00 46 1008.4
20260508222319 59 312 3.0 9.0 0.00 0.00 0.00 47 1008.5
20260508222313 59 311 3.0 10.0 0.00 0.00 0.00 46 1008.4
20260508221314 59 342 2.0 6.0 0.00 0.00 0.00 46 1008.4
20260508220815 60 309 2.0 4.0 0.00 0.00 0.00 46 1008.4
20260508220314 60 311 2.0 6.0 0.00 0.00 0.00 45 1008.3
20260508215813 61 276 2.0 7.0 0.00 0.00 0.00 44 1008.3
20260508215324 61 284 3.0 9.0 0.00 0.00 0.00 44 1008.3
20260508215314 61 227 3.0 8.0 0.00 0.00 0.00 43 1008.3
20260508214932 61 234 3.0 9.0 0.00 0.00 0.00 44 1008.3
20260508213819 61 242 3.0 14.0 0.00 0.00 0.00 44 1008.2
20260508213814 61 281 3.0 8.0 0.00 0.00 0.00 43 1008.2
20260508212816 61 327 3.0 9.0 0.00 0.00 0.00 44 1008.3
20260508212811 60 304 4.0 14.0 0.00 0.00 0.00 45 1008.3
20260508211811 61 261 2.0 8.0 0.00 0.00 0.00 44 1008.3
20260508211316 60 313 3.0 8.0 0.00 0.00 0.00 46 1008.3
20260508211310 60 296 3.0 8.0 0.00 0.00 0.00 46 1008.3
20260508210311 59 229 3.0 7.0 0.00 0.00 0.00 48 1008.3
20260508205809 59 244 3.0 8.0 0.00 0.00 0.00 45 1008.3
20260508205309 59 252 3.0 8.0 0.00 0.00 0.00 47 1008.2
20260508204811 59 281 3.0 10.0 0.00 0.00 0.00 47 1008.0
20260508204310 59 329 3.0 10.0 0.00 0.00 0.00 47 1008.1
20260508203808 59 296 3.0 11.0 0.00 0.00 0.00 45 1008.0
20260508203305 59 317 4.0 11.0 0.00 0.00 0.00 45 1008.1
20260508202805 59 254 4.0 15.0 0.00 0.00 0.00 44 1008.0
20260508202307 60 300 4.0 15.0 0.00 0.00 0.00 43 1008.1
20260508201804 60 275 4.0 11.0 0.00 0.00 0.00 44 1007.9
20260508201308 60 302 5.0 15.0 0.00 0.00 0.00 41 1007.7
20260508201304 60 276 4.0 15.0 0.00 0.00 0.00 42 1007.7
20260508200310 61 319 5.0 12.0 0.00 0.00 0.00 40 1007.7
20260508200304 61 342 5.0 13.0 0.00 0.00 0.00 41 1007.8
20260508195921 61 300 4.0 12.0 0.00 0.00 0.00 40 1007.6
20260508194802 61 243 5.0 12.0 0.00 0.00 0.00 38 1007.4
20260508194300 62 311 4.0 9.0 0.00 0.00 0.00 38 1007.4
20260508193801 62 271 3.0 9.0 0.00 0.00 0.00 39 1007.3
20260508193259 62 331 4.0 10.0 0.00 0.00 0.00 36 1007.2
20260508192800 62 250 4.0 10.0 0.00 0.00 0.00 36 1007.2
20260508192259 63 311 3.0 9.0 0.00 0.00 0.00 37 1007.2
20260508191759 62 317 3.0 11.0 0.00 0.00 0.00 38 1007.1
20260508191259 62 307 5.0 15.0 0.00 0.00 0.00 37 1007.2
20260508190759 62 321 5.0 15.0 0.00 0.00 0.00 36 1007.2
20260508190259 63 341 4.0 16.0 0.00 0.00 0.00 38 1007.3
20260508185804 63 249 5.0 16.0 0.00 0.00 0.00 36 1007.2
20260508185758 63 308 4.0 12.0 0.00 0.00 0.00 35 1007.2
20260508184812 62 343 5.0 15.0 0.00 0.00 0.00 36 1007.2
20260508184758 63 275 3.0 7.0 0.00 0.00 0.00 36 1007.1
20260508184257 62 320 4.0 14.0 0.00 0.00 0.00 38 1007.2
20260508183803 62 324 5.0 14.0 0.00 0.00 0.00 36 1007.2
20260508182757 62 320 5.0 15.0 0.00 0.00 0.00 36 1007.3
20260508182257 62 247 4.0 12.0 0.00 0.00 0.00 35 1007.3
20260508181759 62 266 4.0 12.0 0.00 0.00 0.00 36 1007.2
20260508181304 63 11 4.0 13.0 0.00 0.00 0.00 35 1007.3
20260508181258 62 243 4.0 11.0 0.00 0.00 0.00 35 1007.3
20260508180757 63 300 4.0 13.0 0.00 0.00 0.00 36 1007.2
20260508175755 62 315 4.0 10.0 0.00 0.00 0.00 36 1007.1
20260508175256 63 259 6.0 12.0 0.00 0.00 0.00 36 1007.1
20260508174756 63 252 5.0 12.0 0.00 0.00 0.00 37 1007.2
20260508174255 63 0 4.0 11.0 0.00 0.00 0.00 37 1007.2
20260508173801 63 0 4.0 10.0 0.00 0.00 0.00 35 1007.2
20260508173755 63 0 4.0 11.0 0.00 0.00 0.00 35 1007.2
20260508172756 63 0 4.0 12.0 0.00 0.00 0.00 37 1007.3
20260508172255 63 0 4.0 12.0 0.00 0.00 0.00 37 1007.2
20260508171756 64 0 3.0 10.0 0.00 0.00 0.00 38 1007.4
20260508171259 64 0 3.0 8.0 0.00 0.00 0.00 36 1007.3
20260508171255 63 319 3.0 10.0 0.00 0.00 0.00 38 1007.4
20260508170254 62 274 4.0 12.0 0.00 0.00 0.00 39 1007.4
20260508165754 63 337 4.0 12.0 0.00 0.00 0.00 36 1007.4
20260508165255 62 298 3.0 9.0 0.00 0.00 0.00 40 1007.4
20260508164754 62 314 2.0 6.0 0.00 0.00 0.00 39 1007.4
20260508164254 62 250 3.0 8.0 0.00 0.00 0.00 37 1007.6
20260508163753 63 271 4.0 8.0 0.00 0.00 0.00 36 1007.6
20260508163253 63 317 2.0 9.0 0.00 0.00 0.00 37 1007.6
20260508162754 61 318 3.0 9.0 0.00 0.00 0.00 40 1007.5